�N����,����,�~����,�C��,���x,�C��,����,���ϕ���,�ő�u�ԕ���,�ő厞����,���˗�,�I�_���x,�n�����x,�ő啗���N��,DTYPE
"21/11/05","00:10",0.0,9.5,92.7,1013.8,304.0,1.6,2.2,318.3,0.00,8.4,15.6,"00:07:20",1
"21/11/05","00:20",0.0,9.6,92.8,1013.8,303.1,1.3,2.1,315.0,0.00,8.5,15.5,"00:12:00",1
"21/11/05","00:30",0.0,9.8,93.0,1013.5,302.5,1.5,2.8,326.2,0.00,8.8,15.7,"00:27:04",1
"21/11/05","00:40",0.0,10.2,92.9,1014.0,321.9,1.2,2.0,325.4,0.00,9.1,15.6,"00:35:30",1
"21/11/05","00:50",0.0,10.2,93.0,1013.8,319.3,1.3,2.1,317.7,0.00,9.2,15.5,"00:41:36",1
"21/11/05","01:00",0.0,10.1,93.1,1013.8,312.0,1.2,1.9,324.2,0.00,9.1,15.6,"00:54:48",1
"21/11/05","01:10",0.0,10.0,93.3,1013.8,320.5,1.3,2.0,333.3,0.00,9.0,15.1,"01:02:00",1
"21/11/05","01:20",0.0,10.2,93.2,1013.8,305.7,1.6,2.8,323.9,0.00,9.2,15.3,"01:10:02",1
"21/11/05","01:30",0.0,10.2,93.4,1013.8,324.4,1.7,2.7,337.5,0.00,9.2,15.4,"01:24:32",1
"21/11/05","01:40",0.0,10.0,93.5,1013.8,317.2,1.7,2.4,331.1,0.00,9.0,15.3,"01:31:12",1
"21/11/05","01:50",0.0,10.1,93.5,1013.8,302.6,1.7,2.4,326.2,0.00,9.1,15.3,"01:40:16",1
"21/11/05","02:00",0.0,10.2,93.5,1014.2,305.6,1.8,2.5,320.6,0.00,9.2,15.1,"01:54:24",1
"21/11/05","02:10",0.0,10.1,93.6,1014.0,315.0,1.8,2.4,334.6,0.00,9.2,15.2,"02:06:56",1
"21/11/05","02:20",0.0,9.8,93.6,1014.2,297.3,1.3,2.0,314.2,0.00,8.9,15.1,"02:14:08",1
"21/11/05","02:30",0.0,9.5,93.8,1014.0,299.3,1.1,1.9,323.8,0.00,8.6,15.0,"02:29:44",1
"21/11/05","02:40",0.0,9.2,93.9,1014.2,302.3,0.7,1.7,315.0,0.00,8.3,15.1,"02:35:20",1
"21/11/05","02:50",0.0,9.0,94.0,1014.2,294.9,1.1,2.4,323.5,0.00,8.1,15.0,"02:47:36",1
"21/11/05","03:00",0.0,8.8,94.1,1014.2,287.2,1.1,2.2,324.1,0.00,7.9,14.9,"02:53:36",1
"21/11/05","03:10",0.0,8.6,94.4,1014.2,303.9,0.6,1.7,319.3,0.00,7.8,15.1,"03:03:44",1
"21/11/05","03:20",0.0,8.7,94.4,1014.0,297.4,1.0,2.5,322.1,0.00,7.9,15.1,"03:18:48",1
"21/11/05","03:30",0.0,8.6,94.4,1014.2,316.2,1.3,2.9,321.9,0.00,7.8,14.8,"03:27:36",1
"21/11/05","03:40",0.0,8.6,94.7,1014.2,310.0,1.3,2.7,304.0,0.00,7.8,14.9,"03:33:44",1
"21/11/05","03:50",0.0,8.6,94.6,1014.5,305.9,1.6,2.9,316.5,0.00,7.8,14.9,"03:41:44",1
"21/11/05","04:00",0.0,8.5,94.8,1014.5,317.7,1.8,2.5,323.2,0.00,7.8,14.8,"03:51:36",1
"21/11/05","04:10",0.0,8.2,95.0,1014.2,292.8,1.6,2.7,316.2,0.00,7.5,14.7,"04:08:32",1
"21/11/05","04:20",0.0,8.1,95.2,1014.2,294.0,1.7,2.1,312.6,0.00,7.4,15.0,"04:15:12",1
"21/11/05","04:30",0.0,8.3,95.2,1014.2,290.8,1.3,2.4,311.4,0.00,7.6,14.7,"04:27:12",1
"21/11/05","04:40",0.0,8.1,95.3,1014.2,292.5,1.2,2.2,307.2,0.00,7.4,14.8,"04:32:24",1
"21/11/05","04:50",0.0,7.9,95.4,1014.5,289.5,1.1,1.7,261.2,0.00,7.3,14.7,"04:46:24",1
"21/11/05","05:00",0.0,8.7,95.7,1014.7,331.1,1.5,2.8,334.0,0.00,8.1,14.6,"04:58:48",1
"21/11/05","05:10",0.0,8.6,95.5,1014.7,312.9,1.5,2.4,324.4,0.00,8.0,14.7,"05:04:56",1
"21/11/05","05:20",0.0,8.5,95.7,1014.7,319.3,1.6,2.4,332.7,0.00,7.9,14.7,"05:16:48",1
"21/11/05","05:30",0.0,8.2,95.8,1014.7,292.9,1.3,2.1,297.6,0.00,7.6,14.6,"05:20:56",1
"21/11/05","05:40",0.0,8.9,96.1,1014.5,340.4,1.2,2.2,345.5,0.00,8.4,14.8,"05:39:20",1
"21/11/05","05:50",0.0,8.8,96.0,1014.9,288.0,1.5,2.1,311.4,0.00,8.2,14.5,"05:42:24",1
"21/11/05","06:00",0.0,8.9,96.0,1014.7,293.3,1.3,1.4,290.5,0.00,8.3,14.5,"05:53:36",1
"21/11/05","06:10",0.0,8.9,96.1,1014.7,284.0,1.0,1.6,269.7,0.00,8.4,14.6,"06:04:56",1
"21/11/05","06:20",0.0,9.0,96.2,1014.5,306.2,1.5,2.4,324.6,0.00,8.5,14.4,"06:16:32",1
"21/11/05","06:30",0.0,9.2,96.3,1014.2,325.9,1.3,1.9,328.9,0.00,8.7,14.5,"06:20:56",1
"21/11/05","06:40",0.0,9.4,96.3,1014.2,326.8,0.7,1.4,298.7,0.00,8.9,14.5,"06:39:12",1
"21/11/05","06:50",0.0,9.5,96.4,1014.7,272.2,0.5,1.1,304.1,0.00,9.0,14.4,"06:40:16",1
"21/11/05","07:00",0.0,9.4,96.3,1014.9,310.0,1.5,2.2,316.2,0.00,8.9,14.4,"06:54:08",1
"21/11/05","07:10",0.0,9.3,96.5,1014.7,310.5,1.5,2.1,317.6,0.00,8.8,14.5,"07:05:28",1
"21/11/05","07:20",0.0,9.4,96.6,1014.9,312.8,1.7,2.7,333.9,0.00,8.9,14.4,"07:16:16",1
"21/11/05","07:30",0.0,9.8,96.7,1015.4,315.5,1.6,2.6,313.3,0.00,9.3,14.4,"07:24:24",1
"21/11/05","07:40",0.0,10.3,96.7,1015.2,322.8,1.8,3.3,327.5,0.01,9.8,14.4,"07:35:52",1
"21/11/05","07:50",0.0,10.9,96.5,1015.2,321.0,2.0,3.4,321.0,0.02,10.4,14.4,"07:42:08",1
"21/11/05","08:00",0.0,11.5,96.3,1015.4,331.5,1.6,3.2,335.2,0.03,11.0,14.3,"07:52:00",1
"21/11/05","08:10",0.0,12.1,96.0,1015.4,327.7,1.2,2.1,356.5,0.04,11.5,14.6,"08:06:40",1
"21/11/05","08:20",0.0,12.9,95.6,1015.6,332.0,0.8,1.9,321.6,0.05,12.3,14.4,"08:13:36",1
"21/11/05","08:30",0.0,13.5,95.1,1015.6,324.4,0.5,1.3,331.2,0.09,12.8,14.6,"08:23:28",1
"21/11/05","08:40",0.0,13.4,93.7,1015.9,229.1,0.6,1.9,228.2,0.13,12.4,14.5,"08:39:04",1
"21/11/05","08:50",0.0,13.8,93.5,1015.9,217.0,0.6,1.8,234.4,0.17,12.8,14.6,"08:40:16",1
"21/11/05","09:00",0.0,13.9,92.4,1015.9,208.1,1.1,2.1,201.8,0.19,12.7,14.5,"08:53:44",1
"21/11/05","09:10",0.0,14.2,90.7,1016.4,206.6,1.3,2.8,224.1,0.22,12.7,14.3,"09:01:28",1
"21/11/05","09:20",0.0,14.8,88.9,1016.6,225.8,0.5,1.2,229.0,0.24,13.0,14.5,"09:10:56",1
"21/11/05","09:30",0.0,15.2,85.8,1016.6,225.5,0.8,1.6,129.1,0.27,12.9,14.7,"09:23:12",1
"21/11/05","09:40",0.0,15.8,82.5,1016.6,213.5,0.6,1.4,135.9,0.29,12.9,14.4,"09:36:56",1
"21/11/05","09:50",0.0,16.3,79.0,1016.4,193.6,0.7,2.0,202.4,0.31,12.7,14.6,"09:49:36",1
"21/11/05","10:00",0.0,17.0,76.6,1016.1,223.7,0.7,2.0,218.6,0.33,12.9,14.6,"09:57:28",1
"21/11/05","10:10",0.0,17.1,74.4,1015.9,132.5,1.1,2.5,95.3,0.35,12.6,14.7,"10:04:48",1
"21/11/05","10:20",0.0,17.4,73.0,1015.9,114.0,1.2,3.1,79.7,0.37,12.6,14.7,"10:16:08",1
"21/11/05","10:30",0.0,17.5,71.3,1016.1,113.1,1.0,2.5,109.7,0.39,12.3,14.8,"10:22:48",1
"21/11/05","10:40",0.0,18.2,69.0,1015.6,112.1,0.8,3.4,98.5,0.42,12.5,15.1,"10:36:56",1
"21/11/05","10:50",0.0,18.4,66.8,1015.2,319.1,1.3,2.5,347.1,0.37,12.2,14.9,"10:44:48",1
"21/11/05","11:00",0.0,18.8,65.6,1015.4,216.2,0.7,2.0,98.4,0.39,12.3,15.2,"10:58:08",1
"21/11/05","11:10",0.0,18.9,65.5,1014.9,216.3,1.1,2.4,225.5,0.44,12.3,15.4,"11:03:12",1
"21/11/05","11:20",0.0,19.6,64.5,1014.9,188.0,0.7,2.1,230.4,0.46,12.8,15.4,"11:14:56",1
"21/11/05","11:30",0.0,20.0,61.9,1014.7,134.4,1.1,3.5,106.0,0.49,12.5,15.4,"11:29:36",1
"21/11/05","11:40",0.0,19.8,60.8,1014.2,132.4,1.3,3.1,121.8,0.48,12.1,15.5,"11:31:12",1
"21/11/05","11:50",0.0,19.3,59.9,1014.2,218.6,2.5,4.9,224.3,0.39,11.4,15.6,"11:46:08",1
"21/11/05","12:00",0.0,19.5,60.1,1014.2,248.8,1.7,3.5,221.6,0.33,11.6,15.7,"11:50:56",1
"21/11/05","12:10",0.0,19.7,60.7,1013.5,240.9,0.7,2.2,318.7,0.26,11.9,15.8,"12:00:48",1
"21/11/05","12:20",0.0,20.0,58.3,1013.0,149.3,0.8,1.9,179.4,0.33,11.6,15.9,"12:18:56",1
"21/11/05","12:30",0.0,19.4,59.5,1013.0,159.7,1.1,2.4,135.3,0.14,11.4,16.0,"12:23:44",1
"21/11/05","12:40",0.0,18.6,61.2,1013.5,170.0,0.5,1.3,144.3,0.05,11.0,16.0,"12:30:56",1
"21/11/05","12:50",0.0,18.5,60.8,1013.3,51.5,1.0,2.4,348.1,0.09,10.8,16.0,"12:47:20",1
"21/11/05","13:00",0.0,18.8,58.1,1013.5,12.8,1.2,2.7,328.3,0.13,10.4,16.1,"12:58:00",1
"21/11/05","13:10",0.0,18.7,58.5,1013.5,15.0,1.6,5.1,2.2,0.11,10.4,16.2,"13:02:32",1
"21/11/05","13:20",0.0,18.3,59.5,1013.3,3.0,1.6,4.7,27.6,0.10,10.3,16.3,"13:12:08",1
"21/11/05","13:30",0.0,19.1,60.0,1013.3,339.4,1.8,3.9,330.4,0.28,11.2,16.4,"13:29:20",1
"21/11/05","13:40",0.0,18.5,60.3,1013.5,344.8,2.7,5.4,349.3,0.12,10.7,16.4,"13:32:48",1
"21/11/05","13:50",0.0,18.0,63.0,1013.3,347.1,2.2,5.5,328.4,0.09,10.9,16.4,"13:43:12",1
"21/11/05","14:00",0.0,17.5,63.8,1013.3,335.6,2.2,4.1,341.5,0.08,10.6,16.5,"13:57:36",1
"21/11/05","14:10",0.0,17.4,64.8,1013.0,341.4,2.0,4.5,350.7,0.08,10.8,16.4,"14:06:04",1
"21/11/05","14:20",0.0,17.4,64.7,1013.3,327.1,2.0,4.4,337.8,0.10,10.7,16.3,"14:16:00",1
"21/11/05","14:30",0.0,17.8,64.4,1013.0,316.6,1.6,3.9,338.3,0.14,11.0,16.4,"14:27:20",1
"21/11/05","14:40",0.0,18.9,61.8,1012.8,331.7,1.2,2.8,330.8,0.29,11.5,16.6,"14:39:28",1
"21/11/05","14:50",0.0,19.9,58.7,1012.6,291.8,1.1,2.2,330.4,0.26,11.6,16.5,"14:40:40",1
"21/11/05","15:00",0.0,19.8,57.0,1012.6,6.7,1.1,2.7,41.6,0.19,11.1,16.5,"14:56:08",1
"21/11/05","15:10",0.0,20.1,54.5,1012.8,351.3,1.2,2.6,332.2,0.24,10.7,16.6,"15:05:04",1
"21/11/05","15:20",0.0,18.7,57.1,1013.0,355.4,2.7,5.7,347.0,0.07,10.1,16.7,"15:18:24",1
"21/11/05","15:30",0.0,17.9,60.0,1012.8,339.6,2.2,5.2,320.4,0.03,10.1,16.7,"15:27:20",1
"21/11/05","15:40",0.0,17.5,61.3,1012.8,339.6,2.1,4.0,329.4,0.04,10.0,16.6,"15:30:24",1
"21/11/05","15:50",0.0,17.5,61.2,1012.8,331.5,1.8,3.9,325.8,0.03,10.0,16.8,"15:42:24",1
"21/11/05","16:00",0.0,17.6,61.0,1013.0,324.9,1.6,3.3,339.6,0.06,10.0,16.7,"15:52:40",1
"21/11/05","16:10",0.0,18.3,58.7,1013.5,322.5,2.0,3.6,330.4,0.09,10.1,16.8,"16:04:00",1
"21/11/05","16:20",0.0,18.4,56.4,1013.5,323.2,1.8,3.1,316.8,0.06,9.6,16.7,"16:17:12",1
"21/11/05","16:30",0.0,18.2,57.2,1013.5,333.4,1.8,3.7,325.2,0.03,9.6,16.8,"16:22:08",1
"21/11/05","16:40",0.0,17.8,58.8,1013.5,332.2,1.8,3.9,333.7,0.01,9.7,16.6,"16:30:48",1
"21/11/05","16:50",0.0,17.0,60.1,1013.8,320.8,1.7,3.2,299.3,0.00,9.3,16.7,"16:42:48",1
"21/11/05","17:00",0.0,16.5,61.8,1013.8,323.4,1.6,3.1,311.9,0.00,9.2,16.6,"16:52:40",1
"21/11/05","17:10",0.0,15.9,64.1,1013.8,329.3,1.1,2.0,333.1,0.00,9.2,16.7,"17:03:28",1
"21/11/05","17:20",0.0,15.2,66.2,1014.0,337.8,1.5,3.4,336.5,0.00,9.0,16.7,"17:13:52",1
"21/11/05","17:30",0.0,14.8,67.8,1013.8,329.9,2.0,3.5,338.9,0.00,9.0,16.8,"17:29:46",1
"21/11/05","17:40",0.0,14.7,69.0,1014.0,325.1,2.1,3.3,318.1,0.00,9.1,16.6,"17:34:22",1
"21/11/05","17:50",0.0,14.2,70.3,1014.0,321.9,1.6,2.8,341.6,0.00,8.9,16.6,"17:48:14",1
"21/11/05","18:00",0.0,13.9,71.4,1014.0,320.9,1.6,2.5,333.2,0.00,8.9,16.6,"17:57:46",1
"21/11/05","18:10",0.0,13.7,72.3,1014.2,285.0,1.3,2.5,312.8,0.00,8.9,16.5,"18:01:08",1
"21/11/05","18:20",0.0,13.7,72.8,1014.5,294.3,1.7,2.8,324.5,0.00,9.0,16.5,"18:12:12",1
"21/11/05","18:30",0.0,14.1,72.3,1014.5,305.0,1.5,2.7,343.5,0.00,9.2,16.7,"18:26:20",1
"21/11/05","18:40",0.0,14.0,72.4,1014.7,301.7,1.6,3.1,346.0,0.00,9.2,16.5,"18:38:32",1
"21/11/05","18:50",0.0,14.3,71.8,1014.2,307.3,1.7,4.3,323.9,0.00,9.3,16.5,"18:42:44",1
"21/11/05","19:00",0.0,14.3,71.5,1014.5,305.9,1.6,2.7,333.8,0.00,9.3,16.2,"18:50:52",1
"21/11/05","19:10",0.0,13.3,72.2,1014.5,338.6,1.2,2.2,323.3,0.00,8.4,16.3,"19:07:22",1
"21/11/05","19:20",0.0,12.0,73.8,1014.5,322.3,1.3,2.1,321.0,0.00,7.5,16.2,"19:12:44",1
"21/11/05","19:30",0.0,11.7,76.1,1014.5,329.6,1.6,2.1,342.4,0.00,7.7,16.2,"19:26:16",1
"21/11/05","19:40",0.0,11.3,78.2,1014.2,329.8,1.3,1.9,331.7,0.00,7.7,16.2,"19:33:34",1
"21/11/05","19:50",0.0,10.5,79.9,1014.5,300.4,1.1,1.7,313.3,0.00,7.2,16.1,"19:40:16",1
"21/11/05","20:00",0.0,10.3,81.4,1014.0,299.5,1.5,2.0,318.1,0.00,7.3,16.1,"19:56:32",1
"21/11/05","20:10",0.0,10.4,83.0,1014.2,292.4,1.3,2.0,272.7,0.00,7.7,16.0,"20:09:28",1
"21/11/05","20:20",0.0,10.2,83.7,1014.2,298.1,0.8,1.6,316.3,0.00,7.6,16.1,"20:17:20",1
"21/11/05","20:30",0.0,10.0,84.6,1014.2,303.8,1.2,1.9,296.8,0.00,7.6,15.8,"20:26:48",1
"21/11/05","20:40",0.0,9.7,85.5,1013.8,315.9,1.6,2.6,324.8,0.00,7.4,15.9,"20:30:48",1
"21/11/05","20:50",0.0,9.3,86.2,1014.0,298.9,1.3,2.2,320.3,0.00,7.2,15.9,"20:40:48",1
"21/11/05","21:00",0.0,9.6,87.7,1014.7,308.1,1.6,3.4,342.2,0.00,7.7,15.9,"20:59:54",1
"21/11/05","21:10",0.0,10.6,87.6,1014.5,326.5,1.8,2.6,326.6,0.00,8.7,15.7,"21:00:16",1
"21/11/05","21:20",0.0,11.4,87.2,1014.7,325.9,2.5,4.3,336.8,0.00,9.4,16.0,"21:17:56",1
"21/11/05","21:30",0.0,11.7,86.3,1014.7,328.3,2.0,3.5,327.2,0.00,9.5,15.7,"21:25:00",1
"21/11/05","21:40",0.0,11.4,85.5,1014.7,327.7,1.7,2.9,325.8,0.00,9.1,15.6,"21:35:30",1
"21/11/05","21:50",0.0,11.0,85.1,1015.2,302.0,1.1,2.0,324.0,0.00,8.6,15.5,"21:41:28",1
"21/11/05","22:00",0.0,10.5,85.2,1015.2,321.2,0.6,1.2,275.9,0.00,8.2,15.7,"21:53:28",1
"21/11/05","22:10",0.0,10.7,85.6,1015.4,341.3,1.6,3.1,336.8,0.00,8.4,15.5,"22:07:46",1
"21/11/05","22:20",0.0,10.9,85.8,1015.2,328.8,2.2,3.1,333.3,0.00,8.7,15.4,"22:17:14",1
"21/11/05","22:30",0.0,11.1,85.5,1015.2,326.5,2.3,3.4,329.9,0.00,8.8,15.5,"22:27:28",1
"21/11/05","22:40",0.0,11.1,85.3,1015.6,325.4,1.8,3.2,311.2,0.00,8.8,15.5,"22:39:42",1
"21/11/05","22:50",0.0,10.9,85.3,1015.4,324.8,1.7,3.5,340.8,0.00,8.6,15.4,"22:42:16",1
"21/11/05","23:00",0.0,10.4,85.3,1015.6,299.3,1.0,2.0,293.5,0.00,8.1,15.3,"22:59:44",1
"21/11/05","23:10",0.0,10.1,85.6,1015.9,315.6,0.8,1.6,313.6,0.00,7.8,15.3,"23:03:52",1
"21/11/05","23:20",0.0,9.5,85.8,1015.9,302.0,1.0,1.7,305.0,0.00,7.3,15.2,"23:17:52",1
"21/11/05","23:30",0.0,10.3,86.7,1015.2,328.9,2.6,4.2,324.7,0.00,8.2,15.2,"23:27:36",1
"21/11/05","23:40",0.0,10.6,86.7,1015.6,327.5,2.8,4.9,334.3,0.00,8.5,15.3,"23:31:04",1
"21/11/05","23:50",0.0,10.4,86.4,1015.6,327.8,1.6,2.8,341.7,0.00,8.3,15.2,"23:40:40",1
"21/11/05","24:00",0.0,9.8,86.7,1015.4,312.6,1.1,1.7,301.1,0.00,7.7,15.2,"23:58:48",1
